DW7714 Weather Reports


Display with metric or nautical units.
time (UTC)temp
F
wind
direction
speed
MPH
gust
MPH
rain 1hr
in
rain 24hr
in
rain mn
in
humidity
%
barometer
mb
20190119100505 0 157 2.0 3.0 0.00 0.00 0.00 -0.9
20190119100005 0 160 1.0 2.0 0.00 0.00 0.00 -0.9
20190119095507 0 160 2.0 3.0 0.00 0.00 0.00 -0.9
20190119095005 0 157 2.0 2.0 0.00 0.00 0.00 -0.9
20190119094506 0 162 2.0 3.0 0.00 0.00 0.00 -0.9
20190119094006 0 163 1.0 1.0 0.00 0.00 0.00 -0.9
20190119093507 0 155 1.0 3.0 0.00 0.00 0.00 -0.9
20190119093009 0 156 2.0 3.0 0.00 0.00 0.00 -0.9
20190119092505 0 154 1.0 3.0 0.00 0.00 0.00 -0.9
20190119092005 0 158 2.0 3.0 0.00 0.00 0.00 -0.9
20190119091510 0 162 2.0 3.0 0.00 0.00 0.00 -0.9
20190119091004 0 158 2.0 3.0 0.00 0.00 0.00 -0.9
20190119090505 0 152 2.0 3.0 0.00 0.00 0.00 -0.9
20190119090007 0 149 2.0 4.0 0.00 0.00 0.00 -0.9
20190119085506 0 151 3.0 4.0 0.00 0.00 0.00 -0.9
20190119085005 0 156 2.0 3.0 0.00 0.00 0.00 -0.9
20190119084506 0 160 2.0 3.0 0.00 0.00 0.00 -0.9
20190119084005 0 159 2.0 4.0 0.00 0.00 0.00 -0.9
20190119083506 0 159 4.0 4.0 0.00 0.00 0.00 -0.9
20190119083009 0 162 2.0 4.0 0.00 0.00 0.00 -0.9
20190119082506 0 162 3.0 4.0 0.00 0.00 0.00 -0.9
20190119082005 0 170 4.0 5.0 0.00 0.00 0.00 -0.9
20190119081506 0 188 2.0 4.0 0.00 0.00 0.00 -0.9
20190119081005 0 199 3.0 5.0 0.00 0.00 0.00 -0.9
20190119080507 0 194 3.0 5.0 0.00 0.00 0.00 -0.9
20190119080006 0 188 2.0 5.0 0.00 0.00 0.00 -0.9
20190119075505 0 193 4.0 5.0 0.00 0.00 0.00 -0.9
20190119075005 0 207 2.0 5.0 0.00 0.00 0.00 -0.9
20190119074506 0 209 3.0 4.0 0.00 0.00 0.00 -0.9
20190119074005 0 199 1.0 4.0 0.00 0.00 0.00 -0.9
20190119073505 0 168 2.0 4.0 0.00 0.00 0.00 -0.9
20190119073009 0 184 0.0 1.0 0.00 0.00 0.00 -0.9
20190119072506 0 232 1.0 1.0 0.00 0.00 0.00 -0.9
20190119072005 0 236 1.0 2.0 0.00 0.00 0.00 -0.9
20190119071506 0 249 1.0 2.0 0.00 0.00 0.00 -0.9
20190119071005 0 265 1.0 2.0 0.00 0.00 0.00 -0.9
20190119070506 0 270 1.0 3.0 0.00 0.00 0.00 -0.9
20190119070006 0 273 2.0 3.0 0.00 0.00 0.00 -0.9
20190119065506 0 265 1.0 3.0 0.00 0.00 0.00 -0.9
20190119065006 0 279 2.0 3.0 0.00 0.00 0.00 -0.9
20190119064506 0 296 1.0 3.0 0.00 0.00 0.00 -0.9
20190119064005 0 310 2.0 3.0 0.00 0.00 0.00 -0.9
20190119063506 0 279 0.0 5.0 0.00 0.00 0.00 -0.9
20190119063009 0 263 5.0 6.0 0.00 0.00 0.00 -0.9
20190119062506 0 275 4.0 5.0 0.00 0.00 0.00 -0.9
20190119062005 0 291 2.0 6.0 0.00 0.00 0.00 -0.9
20190119061506 0 326 2.0 6.0 0.00 0.00 0.00 -0.9
20190119061005 0 331 2.0 4.0 0.00 0.00 0.00 -0.9
20190119060505 0 327 5.0 6.0 0.00 0.00 0.00 -0.9
20190119060005 0 326 2.0 6.0 0.00 0.00 0.00 -0.9
20190119055505 0 337 3.0 7.0 0.00 0.00 0.00 -0.9
20190119055005 0 321 4.0 9.0 0.00 0.00 0.00 -0.9
20190119054507 0 313 4.0 8.0 0.00 0.00 0.00 -0.9
20190119054005 0 318 7.0 8.0 0.00 0.00 0.00 -0.9
20190119053505 0 327 6.0 11.0 0.00 0.00 0.00 -0.9
20190119053008 0 338 7.0 10.0 0.00 0.00 0.00 -0.9
20190119052505 0 337 10.0 11.0 0.00 0.00 0.00 -0.9
20190119052005 0 334 7.0 11.0 0.00 0.00 0.00 -0.9
20190119051505 0 333 6.0 8.0 0.00 0.00 0.00 -0.9
20190119051005 0 337 6.0 10.0 0.00 0.00 0.00 -0.9
20190119050509 0 340 9.0 12.0 0.00 0.00 0.00 -0.9
20190119050006 0 342 8.0 10.0 0.00 0.00 0.00 -0.9
20190119045506 0 343 8.0 9.0 0.00 0.00 0.00 -0.9
20190119045005 0 343 9.0 9.0 0.00 0.00 0.00 -0.9
20190119044506 0 344 9.0 11.0 0.00 0.00 0.00 -0.9
20190119044005 0 344 10.0 11.0 0.00 0.00 0.00 -0.9
20190119043506 0 342 9.0 10.0 0.00 0.00 0.00 -0.9
20190119043008 0 338 8.0 13.0 0.00 0.00 0.00 -0.9
20190119042505 0 336 11.0 13.0 0.00 0.00 0.00 -0.9
20190119042005 0 336 9.0 13.0 0.00 0.00 0.00 -0.9
20190119041507 0 335 9.0 13.0 0.00 0.00 0.00 -0.9
20190119041005 0 333 12.0 15.0 0.00 0.00 0.00 -0.9
20190119040506 0 337 12.0 14.0 0.00 0.00 0.00 -0.9
20190119040005 0 340 10.0 13.0 0.00 0.00 0.00 -0.9
20190119035505 0 339 9.0 12.0 0.00 0.00 0.00 -0.9
20190119035005 0 338 10.0 12.0 0.00 0.00 0.00 -0.9
20190119034506 0 335 11.0 12.0 0.00 0.00 0.00 -0.9
20190119034004 0 335 8.0 14.0 0.00 0.00 0.00 -0.9
20190119033506 0 334 9.0 14.0 0.00 0.00 0.00 -0.9
20190119033009 0 330 11.0 13.0 0.00 0.00 0.00 -0.9
20190119032506 0 324 8.0 12.0 0.00 0.00 0.00 -0.9
20190119032005 0 320 8.0 12.0 0.00 0.00 0.00 -0.9
20190119031505 0 325 5.0 13.0 0.00 0.00 0.00 -0.9
20190119031005 0 328 9.0 15.0 0.00 0.00 0.00 -0.9
20190119030506 0 327 7.0 11.0 0.00 0.00 0.00 -0.9
20190119030006 0 329 10.0 15.0 0.00 0.00 0.00 -0.9
20190119025505 0 334 6.0 14.0 0.00 0.00 0.00 -0.9
20190119025004 0 335 11.0 15.0 0.00 0.00 0.00 -0.9
20190119024506 0 334 5.0 11.0 0.00 0.00 0.00 -0.9
20190119024005 0 341 8.0 14.0 0.00 0.00 0.00 -0.9
20190119023506 0 339 9.0 13.0 0.00 0.00 0.00 -0.9
20190119023009 0 333 9.0 11.0 0.00 0.00 0.00 -0.9
20190119022506 0 332 9.0 12.0 0.00 0.00 0.00 -0.9
20190119022005 0 330 7.0 12.0 0.00 0.00 0.00 -0.9
20190119021506 0 328 8.0 11.0 0.00 0.00 0.00 -0.9
20190119021004 0 332 9.0 12.0 0.00 0.00 0.00 -0.9
20190119020506 0 331 8.0 12.0 0.00 0.00 0.00 -0.9
20190119020005 0 327 10.0 11.0 0.00 0.00 0.00 -0.9
20190119015505 0 322 9.0 13.0 0.00 0.00 0.00 -0.9
20190119015005 0 321 6.0 8.0 0.00 0.00 0.00 -0.9
20190119014506 0 326 6.0 14.0 0.00 0.00 0.00 -0.9
20190119014006 0 325 9.0 12.0 0.00 0.00 0.00 -0.9
20190119013507 0 325 8.0 10.0 0.00 0.00 0.00 -0.9
20190119013009 0 325 7.0 12.0 0.00 0.00 0.00 -0.9
20190119012505 0 324 8.0 12.0 0.00 0.00 0.00 -0.9
20190119012005 0 320 4.0 10.0 0.00 0.00 0.00 -0.9
20190119011506 0 318 6.0 10.0 0.00 0.00 0.00 -0.9
20190119011005 0 319 4.0 10.0 0.00 0.00 0.00 -0.9
20190119010505 0 314 6.0 11.0 0.00 0.00 0.00 -0.9
20190119010006 0 313 5.0 9.0 0.00 0.00 0.00 -0.9
20190119005505 0 315 4.0 9.0 0.00 0.00 0.00 -0.9
20190119005005 0 308 4.0 8.0 0.00 0.00 0.00 -0.9
20190119004506 0 309 5.0 8.0 0.00 0.00 0.00 -0.9
20190118230008 0 281 1.0 5.0 0.00 0.00 0.00 -0.9
20190118225506 0 271 3.0 6.0 0.00 0.00 0.00 -0.9
20190118225005 0 245 2.0 5.0 0.00 0.00 0.00 -0.9
20190118224506 0 246 0.0 4.0 0.00 0.00 0.00 -0.9
20190118223507 0 248 2.0 4.0 0.00 0.00 0.00 -0.9
20190118223009 0 277 0.0 3.0 0.00 0.00 0.00 -0.9
20190118222505 0 289 3.0 6.0 0.00 0.00 0.00 -0.9
20190118222005 0 300 4.0 6.0 0.00 0.00 0.00 -0.9
20190118221505 0 309 4.0 7.0 0.00 0.00 0.00 -0.9
20190118221005 0 304 3.0 9.0 0.00 0.00 0.00 -0.9
20190118220507 0 294 5.0 9.0 0.00 0.00 0.00 -0.9
20190118220006 0 292 4.0 7.0 0.00 0.00 0.00 -0.9
20190118215505 0 292 5.0 7.0 0.00 0.00 0.00 -0.9
20190118215008 0 284 6.0 9.0 0.00 0.00 0.00 -0.9
20190118214506 0 278 1.0 6.0 0.00 0.00 0.00 -0.9
20190118214006 0 265 2.0 7.0 0.00 0.00 0.00 -0.9
20190118213505 0 242 3.0 6.0 0.00 0.00 0.00 -0.9
20190118213009 0 252 0.0 6.0 0.00 0.00 0.00 -0.9
20190118212506 0 260 0.0 7.0 0.00 0.00 0.00 -0.9
20190118212006 0 252 1.0 4.0 0.00 0.00 0.00 -0.9
20190118211506 0 268 2.0 5.0 0.00 0.00 0.00 -0.9
20190118211005 0 295 3.0 6.0 0.00 0.00 0.00 -0.9
20190118210505 0 306 5.0 8.0 0.00 0.00 0.00 -0.9
20190118210005 0 301 3.0 7.0 0.00 0.00 0.00 -0.9
20190118205506 0 298 2.0 7.0 0.00 0.00 0.00 -0.9
20190118205005 0 290 3.0 6.0 0.00 0.00 0.00 -0.9
20190118204505 0 287 4.0 5.0 0.00 0.00 0.00 -0.9
20190118204005 0 296 3.0 7.0 0.00 0.00 0.00 -0.9
20190118203506 0 301 5.0 10.0 0.00 0.00 0.00 -0.9
20190118203009 0 301 4.0 7.0 0.00 0.00 0.00 -0.9
20190118202507 0 304 2.0 6.0 0.00 0.00 0.00 -0.9
20190118202005 0 310 3.0 7.0 0.00 0.00 0.00 -0.9
20190118201506 0 298 4.0 7.0 0.00 0.00 0.00 -0.9
20190118201005 0 265 4.0 8.0 0.00 0.00 0.00 -0.9
20190118200505 0 271 2.0 4.0 0.00 0.00 0.00 -0.9
20190118200005 0 302 3.0 7.0 0.00 0.00 0.00 -0.9
20190118195506 0 303 1.0 7.0 0.00 0.00 0.00 -0.9
20190118195005 0 304 4.0 7.0 0.00 0.00 0.00 -0.9
20190118194509 0 311 2.0 10.0 0.00 0.00 0.00 -0.9
20190118194005 0 292 6.0 8.0 0.00 0.00 0.00 -0.9
20190118193506 0 285 2.0 6.0 0.00 0.00 0.00 -0.9
20190118193009 0 300 2.0 6.0 0.00 0.00 0.00 -0.9
20190118192506 0 313 5.0 8.0 0.00 0.00 0.00 -0.9
20190118192005 0 308 5.0 8.0 0.00 0.00 0.00 -0.9
20190118191507 0 304 2.0 4.0 0.00 0.00 0.00 -0.9
20190118191005 0 266 2.0 8.0 0.00 0.00 0.00 -0.9
20190118190506 0 255 1.0 3.0 0.00 0.00 0.00 -0.9
20190118190005 0 226 3.0 6.0 0.00 0.00 0.00 -0.9
20190118185506 0 187 3.0 7.0 0.00 0.00 0.00 -0.9
20190118185005 0 202 1.0 3.0 0.00 0.00 0.00 -0.9
20190118184506 0 205 0.0 3.0 0.00 0.00 0.00 -0.9
20190118184006 0 247 2.0 3.0 0.00 0.00 0.00 -0.9
20190118183506 0 271 0.0 4.0 0.00 0.00 0.00 -0.9
20190118183009 0 286 1.0 4.0 0.00 0.00 0.00 -0.9
20190118182505 0 297 2.0 4.0 0.00 0.00 0.00 -0.9
20190118182005 0 287 2.0 7.0 0.00 0.00 0.00 -0.9
20190118181506 0 282 3.0 8.0 0.00 0.00 0.00 -0.9
20190118181007 0 281 4.0 8.0 0.00 0.00 0.00 -0.9
20190118180505 0 284 1.0 6.0 0.00 0.00 0.00 -0.9
20190118180005 0 298 2.0 6.0 0.00 0.00 0.00 -0.9
20190118175506 0 302 4.0 6.0 0.00 0.00 0.00 -0.9
20190118175005 0 304 5.0 6.0 0.00 0.00 0.00 -0.9
20190118174506 0 315 6.0 10.0 0.00 0.00 0.00 -0.9
20190118174009 0 305 5.0 9.0 0.00 0.00 0.00 -0.9
20190118173506 0 298 2.0 6.0 0.00 0.00 0.00 -0.9
20190118173009 0 300 3.0 6.0 0.00 0.00 0.00 -0.9
20190118172506 0 298 2.0 6.0 0.00 0.00 0.00 -0.9
20190118172006 0 295 2.0 4.0 0.00 0.00 0.00 -0.9
20190118171506 0 272 4.0 5.0 0.00 0.00 0.00 -0.9
20190118171005 0 277 0.0 3.0 0.00 0.00 0.00 -0.9
20190118170506 0 279 1.0 3.0 0.00 0.00 0.00 -0.9
20190118170006 0 219 2.0 5.0 0.00 0.00 0.00 -0.9
20190118165506 0 237 1.0 3.0 0.00 0.00 0.00 -0.9
20190118165006 0 284 1.0 4.0 0.00 0.00 0.00 -0.9
20190118164507 0 287 1.0 4.0 0.00 0.00 0.00 -0.9
20190118164006 0 294 4.0 5.0 0.00 0.00 0.00 -0.9
20190118163506 0 286 3.0 5.0 0.00 0.00 0.00 -0.9
20190118163011 0 288 3.0 4.0 0.00 0.00 0.00 -0.9
20190118162505 0 300 2.0 8.0 0.00 0.00 0.00 -0.9
20190118162005 0 310 5.0 10.0 0.00 0.00 0.00 -0.9
20190118161505 0 312 4.0 7.0 0.00 0.00 0.00 -0.9
20190118161005 0 312 3.0 9.0 0.00 0.00 0.00 -0.9
20190118160506 0 317 6.0 8.0 0.00 0.00 0.00 -0.9
20190118160005 0 318 8.0 11.0 0.00 0.00 0.00 -0.9
20190118155506 0 317 4.0 7.0 0.00 0.00 0.00 -0.9
20190118155005 0 318 3.0 9.0 0.00 0.00 0.00 -0.9
20190118154507 0 318 6.0 7.0 0.00 0.00 0.00 -0.9
20190118154005 0 315 3.0 6.0 0.00 0.00 0.00 -0.9
20190118153505 0 311 3.0 4.0 0.00 0.00 0.00 -0.9
20190118153009 0 313 4.0 5.0 0.00 0.00 0.00 -0.9
20190118152506 0 311 4.0 7.0 0.00 0.00 0.00 -0.9
20190118152005 0 309 3.0 6.0 0.00 0.00 0.00 -0.9
20190118151507 0 310 4.0 6.0 0.00 0.00 0.00 -0.9
20190118151005 0 314 2.0 5.0 0.00 0.00 0.00 -0.9
20190118150507 0 319 3.0 4.0 0.00 0.00 0.00 -0.9
20190118150005 0 305 3.0 5.0 0.00 0.00 0.00 -0.9
20190118145506 0 291 1.0 3.0 0.00 0.00 0.00 -0.9
20190118145006 0 279 1.0 3.0 0.00 0.00 0.00 -0.9
20190118144506 0 261 0.0 2.0 0.00 0.00 0.00 -0.9
20190118144006 0 284 2.0 3.0 0.00 0.00 0.00 -0.9
20190118143506 0 310 2.0 5.0 0.00 0.00 0.00 -0.9
20190118143009 0 309 3.0 6.0 0.00 0.00 0.00 -0.9
20190118142506 0 310 4.0 7.0 0.00 0.00 0.00 -0.9
20190118142005 0 313 4.0 9.0 0.00 0.00 0.00 -0.9
20190118141506 0 306 3.0 6.0 0.00 0.00 0.00 -0.9
20190118141005 0 294 4.0 6.0 0.00 0.00 0.00 -0.9
20190118140506 0 281 2.0 4.0 0.00 0.00 0.00 -0.9
20190118140006 0 284 3.0 6.0 0.00 0.00 0.00 -0.9
20190118135506 0 271 2.0 6.0 0.00 0.00 0.00 -0.9
20190118135006 0 261 2.0 4.0 0.00 0.00 0.00 -0.9
20190118134506 0 264 1.0 4.0 0.00 0.00 0.00 -0.9
20190118134005 0 283 2.0 5.0 0.00 0.00 0.00 -0.9
20190118133505 0 302 3.0 5.0 0.00 0.00 0.00 -0.9
20190118133009 0 294 3.0 5.0 0.00 0.00 0.00 -0.9
20190118132505 0 301 4.0 6.0 0.00 0.00 0.00 -0.9
20190118132005 0 310 4.0 7.0 0.00 0.00 0.00 -0.9
20190118131507 0 315 4.0 9.0 0.00 0.00 0.00 -0.9
20190118131005 0 316 5.0 11.0 0.00 0.00 0.00 -0.9
20190118130505 0 316 6.0 10.0 0.00 0.00 0.00 -0.9
20190118130006 0 315 6.0 10.0 0.00 0.00 0.00 -0.9
20190118125506 0 317 7.0 10.0 0.00 0.00 0.00 -0.9
20190118125005 0 318 7.0 11.0 0.00 0.00 0.00 -0.9
20190118124506 0 316 8.0 13.0 0.00 0.00 0.00 -0.9
20190118124004 0 315 8.0 13.0 0.00 0.00 0.00 -0.9
20190118123505 0 315 7.0 12.0 0.00 0.00 0.00 -0.9
20190118123010 0 316 8.0 11.0 0.00 0.00 0.00 -0.9
20190118122507 0 317 7.0 10.0 0.00 0.00 0.00 -0.9
20190118122005 0 318 8.0 12.0 0.00 0.00 0.00 -0.9
20190118121505 0 317 9.0 16.0 0.00 0.00 0.00 -0.9
20190118121005 0 317 9.0 12.0 0.00 0.00 0.00 -0.9
20190118120507 0 322 9.0 15.0 0.00 0.00 0.00 -0.9
20190118120007 0 324 8.0 23.0 0.00 0.00 0.00 -0.9
20190118115506 0 318 9.0 17.0 0.00 0.00 0.00 -0.9
20190118115005 0 316 8.0 13.0 0.00 0.00 0.00 -0.9
20190118114505 0 319 8.0 16.0 0.00 0.00 0.00 -0.9
20190118114005 0 317 5.0 12.0 0.00 0.00 0.00 -0.9
20190118113505 0 316 8.0 12.0 0.00 0.00 0.00 -0.9
20190118113012 0 318 7.0 14.0 0.00 0.00 0.00 -0.9
20190118112506 0 323 10.0 20.0 0.00 0.00 0.00 -0.9
20190118112005 0 325 11.0 21.0 0.00 0.00 0.00 -0.9
20190118111507 0 324 10.0 14.0 0.00 0.00 0.00 -0.9
20190118111005 0 324 9.0 16.0 0.00 0.00 0.00 -0.9
20190118110506 0 321 14.0 21.0 0.00 0.00 0.00 -0.9
20190118110007 0 320 12.0 16.0 0.00 0.00 0.00 -0.9
20190118105506 0 323 10.0 14.0 0.00 0.00 0.00 -0.9
20190118105005 0 324 8.0 17.0 0.00 0.00 0.00 -0.9
20190118104506 0 326 15.0 21.0 0.00 0.00 0.00 -0.9
20190118104005 0 328 12.0 19.0 0.00 0.00 0.00 -0.9
20190118103506 0 330 15.0 22.0 0.00 0.00 0.00 -0.9
20190118103009 0 334 15.0 23.0 0.00 0.00 0.00 -0.9
20190118102505 0 332 20.0 24.0 0.00 0.00 0.00 -0.9
20190118102005 0 328 18.0 24.0 0.00 0.00 0.00 -0.9
20190118101506 0 325 16.0 22.0 0.00 0.00 0.00 -0.9
20190118101006 0 325 12.0 17.0 0.00 0.00 0.00 -0.9